Weather History for Lawrence, MA

Change the Weather History Date:

Friday, July 13, 2012

  Actual Average Record
Temperature  
Mean Temperature 80 °F -  
Max Temperature 91 °F 80 °F 95 °F (1927)
Min Temperature 68 °F 61 °F 50 °F (1933)
Cooling Degree Days 14    
Growing Degree Days 30 (Base 50)    
Moisture  
Dew Point 62 °F    
Average Humidity 57    
Maximum Humidity 70    
Minimum Humidity 39    
Precipitation  
Precipitation 0.00 in - - ()
Sea Level Pressure  
Sea Level Pressure 30.16 in    
Wind  
Wind Speed 6 mph (SSW)    
Max Wind Speed 14 mph    
Max Gust Speed 20 mph    
Visibility 10 miles    
Events      
Averages and records for this station are not official NWS values.
T = Trace of Precipitation, MM = Missing Value Source: NWS Daily Summary

Daily Weather History Graph

Daily Weather History Graph

Search for Another Location

Airport:

Trip Planner

Search our weather history database for the weather conditions in past years. The results will help you decide how hot, cold, wet, or windy it might be!

Date:

Astronomy

Jul. 13, 2012 Rise Set
Actual Time 5:18 AM EDT 8:21 PM EDT
Civil Twilight 4:44 AM EDT 8:55 PM EDT
Nautical Twilight 4:01 AM EDT 9:38 PM EDT
Astronomical Twilight 3:09 AM EDT 10:30 PM EDT
Moon 12:55 AM EDT (7/13) 3:47 PM EDT (7/13)
Length of Visible Light 16h 10m
Length of Day
15h 02m
Waning Crescent, 26% of the Moon is Illuminated
Jul 13
Waning Crescent
Jul 19
New
Jul 26
First Quarter
Aug 1
Full
Aug 9
Last Quarter

Hourly Weather History & Observations

Time (EDT) Temp. Heat Index Dew Point Humidity Pressure Visibility Wind Dir Wind Speed Gust Speed Precip Events Conditions
12:54 AM 72.0 °F - 61.0 °F 68% 30.16 in 10.0 mi SW 6.9 mph - N/A   Clear
1:54 AM 71.1 °F - 60.1 °F 68% 30.15 in 10.0 mi SSW 9.2 mph - N/A   Clear
2:54 AM 70.0 °F - 59.0 °F 68% 30.15 in 10.0 mi SSW 6.9 mph - N/A   Clear
3:54 AM 69.1 °F - 59.0 °F 70% 30.15 in 10.0 mi SSW 3.5 mph - N/A   Clear
4:54 AM 68.0 °F - 57.9 °F 70% 30.16 in 10.0 mi SSW 4.6 mph - N/A   Clear
5:54 AM 68.0 °F - 57.9 °F 70% 30.17 in 10.0 mi SSW 4.6 mph - N/A   Clear
6:54 AM 69.1 °F - 59.0 °F 70% 30.18 in 10.0 mi SSW 3.5 mph - N/A   Clear
7:54 AM 73.0 °F - 61.0 °F 66% 30.20 in 10.0 mi SW 4.6 mph - N/A   Clear
8:54 AM 77.0 °F - 62.1 °F 60% 30.20 in 10.0 mi SW 3.5 mph - N/A   Clear
9:54 AM 80.1 °F 81.7 °F 64.0 °F 58% 30.19 in 10.0 mi Variable 3.5 mph - N/A   Partly Cloudy
10:54 AM 84.0 °F 85.8 °F 64.9 °F 53% 30.19 in 10.0 mi Variable 3.5 mph - N/A   Clear
11:54 AM 87.1 °F 89.2 °F 66.0 °F 49% 30.18 in 10.0 mi SSW 5.8 mph - N/A   Clear
12:54 PM 89.1 °F 91.0 °F 64.9 °F 45% 30.17 in 10.0 mi Variable 4.6 mph - N/A   Clear
1:54 PM 91.0 °F 92.6 °F 64.0 °F 41% 30.16 in 10.0 mi Variable 6.9 mph - N/A   Clear
2:54 PM 91.0 °F 91.9 °F 63.0 °F 39% 30.14 in 10.0 mi SSW 5.8 mph - N/A   Clear
3:54 PM 90.0 °F 91.7 °F 64.9 °F 43% 30.14 in 10.0 mi SSW 10.4 mph 16.1 mph N/A   Clear
4:54 PM 89.1 °F 91.3 °F 66.0 °F 46% 30.13 in 10.0 mi SSW 8.1 mph 16.1 mph N/A   Clear
5:54 PM 88.0 °F 90.3 °F 66.0 °F 48% 30.12 in 10.0 mi SSW 13.8 mph 19.6 mph N/A   Clear
6:54 PM 86.0 °F 88.2 °F 66.0 °F 51% 30.12 in 10.0 mi SSW 5.8 mph - N/A   Clear
7:54 PM 82.0 °F 83.0 °F 62.1 °F 51% 30.13 in 10.0 mi SSW 8.1 mph 17.3 mph N/A   Clear
8:54 PM 80.1 °F 81.1 °F 61.0 °F 52% 30.14 in 10.0 mi SSW 8.1 mph 16.1 mph N/A   Clear
9:54 PM 78.1 °F - 60.1 °F 54% 30.16 in 10.0 mi SSW 6.9 mph - N/A   Clear
10:54 PM 75.9 °F - 60.1 °F 58% 30.15 in 10.0 mi SSW 6.9 mph - N/A   Clear
11:54 PM 75.0 °F - 61.0 °F 62% 30.15 in 10.0 mi SSW 6.9 mph - N/A   Clear